Showing default

DIADEME 2, 2680

Orbit data source: Space-Track

DIADEME 2, 2680 is a payload satellite owned by CNES (FR) in LEO that was launched on Wed, 15 Feb 1967 UTC via a DIAMANT A launch vehicle from the Hamma Guira Space Track Range (HGSTR). Payload-class satellites include a variety of spacecraft equipped with specific instruments for various scientific and technological missions. These include communications satellites like Starlink; space stations such as the ISS; scientific satellites like the Hubble; Earth observation satellites from companies like Planet Labs, Umbra, and HawkEye 360; GPS; miniature CubeSats for education and research; and military/defense satellites.

Loading next visibility...
Identifier
2680, 1967-014A
Orbit
LEO
Last TLE update
11 hours ago
Origin
Manufacturer
CNES
Mission
Civil Geodetic
Bus & Motor
D-1, Unknown motor
Mass
23 kg wet, 23 kg dry
Launch date (UTC)
1967-02-15 (58 years ago)
Launch vehicle
DIAMANT A
Launch site
Hamma Guira Space Track Range (HGSTR)
Object type
Payload
Rocket body
Debris
Shape & HBR
Cyl + 4 Pan, 1.5 m
Radar Cross Section
0.455 m², Medium (>0.1 m² and < 1m²)

Expand to show TLE details & history

TLE from 11 hours ago
0 DIADEME 2
1 02680U 67014A   25182.76490024  .00000408  00000-0  19149-3 0  9993
2 02680  39.4388 217.5485 0703736 204.1827 152.4293 13.40973990828903
Epoch: 2025-07-01T18:21Z
TLE epoch observation values (Epoch: 2025-07-01T18:21:27.38Z)
Latitude
-0.00003°
Longitude
22.12872°
Altitude
1,579.098 km
Speed
6.853 km/s
True Right ascension
14h 30m 11s
True Declination
0° 00' 00"
Sunlit
Object was in daylight at epoch
Visualization orbit readout
Latitude
12.41317°
Longitude
35.56663°
Altitude
1,626.362 km
Speed
6.81 km/s
Apparent Right ascension
13h 25m 59s
Apparent Declination
-32° 00' 14"
Sunlit
Object is in daylight
Visualization observer readout
Local Sidereal Time
16:53:07
Azimuth
221.879° SW
Elevation
3.572°
Doppler factor
1
Orbital elements
Apogee altitude
1,634.825 km
Perigee altitude
581.172 km
Semi-major axis
7,486.135 km
Eccentricity
0.07037
Inclination
39.4388°
RAAN
217.5485°
Arg. of periapsis
204.1827°
True anomaly
Unknown
Mean anomaly
152.4293°
Eccentric anomaly
Unknown
Mean motion
3.35086 °/min
Orbital period
107.44 mins
BSTAR
0.00019149
Loading maneuver chart data...
Loading SW <> Apogee altitude chart data...
Loading historical data...
Loading historical data...
Loading historical data...
Loading historical data...
Loading historical data...
Loading historical data...
Loading historical data...

DIADEME 2 Visibility forecast

Observer location: undefined°, undefined°

Span
Click to sort rows by Start time (UTC) header in descending order
Start Az.
Max El. time (UTC)
Max El. Az.
Max El.
End time (UTC)
End Az.
17 mins2025-07-02 05:14:35.228Z216.127° SW2025-07-02 05:23:35.228Z144.23° SSE35.495°2025-07-02 05:31:35.228Z81.933° E
16 mins2025-07-02 07:08:35.228Z250.309° W2025-07-02 07:17:35.228Z146.249° SSE44.324°2025-07-02 07:24:35.228Z83.055° E
15 mins2025-07-02 09:03:35.228Z272.825° WNW2025-07-02 09:11:35.228Z188.538° SSW44.914°2025-07-02 09:18:35.228Z98.769° ESE
12 mins2025-07-02 10:58:35.228Z277.46° WNW2025-07-02 11:05:35.228Z196.014° SSW38.002°2025-07-02 11:10:35.228Z134.057° SE
4 mins2025-07-02 12:55:35.228Z244.795° WSW2025-07-02 12:57:35.228Z224.252° SW14.602°2025-07-02 12:59:35.228Z202.208° SSW
5 mins2025-07-03 02:40:35.228Z145.531° SSE2025-07-03 02:42:35.228Z133.586° SE11.899°2025-07-03 02:45:35.228Z115.692° SE
15 mins2025-07-03 04:28:35.228Z203.59° SW2025-07-03 04:35:35.228Z150.088° SSE31.847°2025-07-03 04:43:35.228Z85.682° E
|